Dewpoint
25 19 17 16 8 5 10 4 7 16 24 23 21 20 20 21 22 21 21 21 21 22 23 24 26 33 50 55 57 58 60 61 62 62 61 61 61 62 62 62 62 61 60 58
19 15 17 18 16 13 12 13 15 22 24 22 21 19 20 20 21 21 20 19 20 20 20 20 22 27 35 48 55 57 59 60 61 62 61 62 61 62 62 62 62 62 62 60
15 16 20 18 17 15 16 12 15 13 19 18 13 5 5 11 16 16 16 18 20 19 20 28 28 27 30 34 47 54 57 59 61 62 61 58 59 58 60 60 61 61 63 62
14 21 17 17 15 15 14 16 17 18 14 5 15 -3 9 12 11 18 25 26 27 28 29 30 33 35 36 33 32 47 54 57 60 61 61 60 60 59 60 60 60 61 61 63
16 19 20 17 13 13 14 20 20 19 20 17 16 8 7 8 7 18 19 23 27 30 31 33 33 36 38 41 39 36 47 54 57 60 61 60 60 60 58 58 58 58 58 60
25 28 22 20 25 22 26 19 18 22 16 9 15 8 3 2 7 13 16 24 31 32 33 34 35 37 39 41 45 48 48 52 55 58 58 59 59 57 56 55 56 55 55 56
24 25 28 27 24 25 18 12 10 11 13 7 16 14 8 10 13 16 18 29 31 34 35 35 35 36 37 39 41 45 49 51 54 56 56 56 57 56 56 55 55 54 54 53
20 18 26 27 24 23 16 11 12 4 8 7 20 13 10 17 22 22 29 30 33 33 34 35 35 36 37 38 39 39 40 41 45 49 51 52 53 54 54 54 53 53 52 52
17 14 27 27 26 24 19 12 15 17 11 13 12 13 10 26 27 28 29 31 31 31 32 32 33 34 35 36 37 38 38 38 39 40 41 41 43 44 46 47 48 49 49 49
20 17 27 27 26 25 19 20 15 16 5 4 2 8 6 23 26 27 28 29 30 31 32 33 34 34 35 35 36 37 37 37 38 39 39 39 40 41 42 42 43 44 45 45
19 23 25 26 24 22 20 18 18 16 15 10 6 4 12 21 26 27 28 29 30 31 32 34 35 36 36 37 37 37 37 36 36 37 38 39 39 39 40 40 41 41 42 42
23 26 25 24 26 27 23 19 17 14 13 15 14 7 21 26 26 27 27 29 30 31 34 35 36 36 36 36 36 36 36 36 36 36 36 37 36 37 37 37 38 40 40 41
25 25 23 23 24 26 23 22 18 19 22 19 14 11 26 27 27 27 28 29 30 34 35 35 35 35 35 35 36 35 35 35 35 34 35 35 35 34 34 35 36 36 37 37
30 24 20 12 16 24 23 23 21 17 18 17 16 20 24 26 28 29 29 30 34 35 35 34 34 34 34 34 34 34 34 34 34 33 33 34 34 33 32 33 33 34 34 35
26 23 22 28 24 24 23 23 22 18 14 14 14 20 23 26 27 30 30 32 34 33 32 32 32 33 33 33 34 34 33 34 33 32 32 32 33 32 31 32 32 32 33 33
34 26 29 28 31 30 25 24 23 21 20 23 19 17 24 26 27 29 31 34 33 32 31 31 32 32 33 33 33 33 33 33 32 31 31 31 31 31 31 31 31 31 31 32
32 30 23 19 30 28 22 27 24 24 28 22 23 22 31 30 27 31 33 34 32 31 31 31 31 32 33 33 33 32 32 32 31 31 30 30 30 29 29 29 29 30 30 30
33 31 29 27 28 21 24 28 28 26 29 30 30 29 31 30 32 34 33 31 30 31 32 32 32 32 32 33 32 32 31 30 30 30 29 29 28 28 27 27 27 28 28 29
37 35 29 28 28 26 26 26 31 29 28 33 31 31 32 31 29 29 29 29 30 31 33 33 32 32 31 31 31 30 29 29 28 29 29 28 27 26 26 25 26 26 27 27
37 36 31 27 25 23 25 24 32 26 22 28 34 31 30 29 28 27 29 28 28 29 32 32 31 30 29 30 29 28 27 27 27 28 27 27 26 24 24 25 25 25 24 26
31 31 30 28 24 22 25 23 26 21 22 26 32 30 29 26 27 29 28 27 28 28 30 31 30 28 28 29 28 27 26 25 27 25 25 24 24 23 23 24 23 23 23 23
30 29 26 27 24 24 22 20 22 23 28 28 28 28 28 27 25 24 24 25 25 26 27 29 29 28 28 27 25 24 24 25 23 22 22 22 20 21 24 25 22 20 19 20
25 29 28 29 29 25 23 23 24 29 28 27 27 27 28 25 21 21 22 23 24 25 26 27 26 25 26 21 22 22 23 22 22 19 22 25 25 21 26 26 23 22 19 20
21 21 25 27 24 24 28 29 29 28 28 27 25 24 23 21 22 22 22 21 23 24 24 22 21 20 20 20 20 18 20 21 17 17 19 22 24 26 27 27 24 22 23 22
21 21 15 16 20 22 25 26 27 26 24 22 22 22 22 22 21 19 22 24 25 24 22 20 18 17 17 17 16 15 18 17 16 16 18 20 23 24 25 26 26 25 24 24
20 19 19 20 22 26 27 29 23 22 22 23 23 23 22 21 22 24 24 24 22 18 17 15 12 11 11 12 12 11 9 11 11 14 16 18 19 21 22 23 24 27 27 29
Lifted_Index
7 6 5 6 6 6 5 5 5 5 6 6 5 5 5 6 6 6 6 7 6 7 8 8 9 9 8 7 5 3 2 1 1 0 -0 -0 -0 -0 -0 -0 -0 0 1 1
6 6 6 6 6 6 5 5 5 5 6 6 5 5 5 6 6 6 6 6 6 6 7 8 8 8 8 8 6 4 3 2 1 1 0 -0 -0 -0 -0 -0 -0 0 0 1
6 6 6 6 6 6 5 5 5 5 6 6 5 4 4 5 6 6 6 6 6 6 7 7 7 7 8 8 8 7 5 3 2 1 1 0 0 -0 -0 -0 -0 0 0 0
6 6 6 6 6 5 5 6 6 6 5 5 4 3 3 4 5 6 6 6 7 7 7 7 7 7 8 8 9 8 7 5 3 2 1 1 1 0 0 0 1 1 1 0
6 6 6 6 6 6 6 6 7 6 5 4 4 3 3 4 4 5 6 7 7 7 8 8 8 8 8 8 9 9 8 7 5 3 2 2 1 1 1 1 1 1 1 1
6 7 7 6 7 7 7 6 6 5 4 3 3 3 3 4 5 5 6 7 8 8 8 8 8 8 8 9 8 8 8 7 6 4 3 2 2 1 1 1 1 1 1 1
6 6 7 7 7 7 6 5 4 3 2 2 3 3 4 5 6 6 7 8 8 8 9 9 8 8 8 9 8 8 8 7 6 5 4 3 3 2 2 2 2 2 2 2
4 4 6 7 7 6 5 4 3 2 1 2 3 4 4 6 7 7 8 8 8 8 8 8 8 8 8 8 8 8 8 8 7 7 6 5 4 4 4 4 4 4 5 5
3 4 5 7 7 6 5 4 4 3 2 2 3 4 5 6 7 7 8 8 8 8 8 8 8 8 8 8 8 8 8 8 8 8 7 7 7 7 7 7 7 7 7 7
4 4 5 6 6 6 5 5 4 3 2 1 2 3 4 6 7 7 8 8 8 8 8 8 7 8 8 8 8 8 8 8 8 8 8 8 8 8 8 8 7 7 7 7
5 5 5 5 5 5 5 4 4 3 2 1 1 3 5 7 7 7 7 8 8 8 8 8 8 8 8 8 8 8 8 8 8 8 8 8 8 8 8 8 8 8 7 7
5 5 4 4 5 5 5 5 4 4 3 2 2 3 6 8 8 7 7 7 7 7 8 8 8 8 8 8 8 8 8 8 8 8 8 8 8 8 8 8 8 8 8 8
5 4 3 3 4 5 4 4 4 4 3 3 2 4 6 8 8 7 7 7 7 7 8 8 8 8 8 8 8 8 8 8 8 8 8 8 8 8 8 8 8 9 9 9
4 3 3 3 4 4 4 4 4 4 3 3 3 4 6 7 7 7 7 7 7 7 7 8 7 7 7 8 8 8 8 8 8 9 9 9 9 9 9 9 9 10 10 10
4 4 4 4 4 4 4 4 5 4 4 4 4 5 6 7 7 6 6 6 6 6 7 7 7 7 7 7 7 7 8 8 9 9 9 9 10 10 10 10 10 10 11 11
4 4 4 4 5 5 5 5 5 6 6 5 5 5 6 6 6 6 6 6 6 6 6 6 6 7 7 8 8 8 8 9 9 10 10 10 10 11 11 11 11 11 11 11
3 3 3 3 4 4 5 5 6 6 6 6 5 6 6 5 5 5 5 5 5 5 5 6 6 7 8 8 8 8 9 9 10 10 10 11 11 12 12 12 12 12 12 12
2 2 2 2 2 3 4 5 5 5 5 5 5 5 4 4 4 4 4 5 5 5 5 6 7 8 8 9 9 9 9 10 10 10 11 12 12 13 13 13 13 13 13 13
2 2 1 1 1 2 3 4 4 3 3 3 3 3 3 3 3 3 4 4 5 6 7 7 8 8 9 9 10 10 10 11 11 11 12 13 14 14 14 14 14 14 14 14
2 1 1 1 1 2 3 3 3 3 3 3 3 3 3 3 3 3 4 5 6 7 8 8 9 9 10 11 11 11 12 12 12 13 14 14 15 15 15 15 15 14 14 14
2 1 1 1 1 2 3 4 3 3 3 3 3 3 3 4 4 5 5 6 7 8 8 9 10 10 11 12 13 13 13 13 14 15 15 15 16 15 15 15 15 15 14 14
1 1 1 1 1 2 4 4 4 4 4 4 5 5 5 6 6 7 7 7 8 8 9 10 11 11 12 13 14 14 14 15 15 16 16 16 16 15 15 15 15 15 14 14
2 2 2 2 2 3 4 4 5 5 5 5 6 6 7 7 8 8 8 9 9 9 10 11 11 12 13 14 14 14 15 15 15 16 16 16 15 15 15 15 15 14 14 14
4 3 3 3 3 4 5 5 5 6 6 7 7 8 8 9 9 9 9 9 9 10 10 11 12 12 13 14 14 15 15 15 15 16 16 16 15 15 15 15 15 14 14 13
6 5 5 5 5 5 5 5 6 6 7 8 8 8 9 9 9 9 9 9 9 10 11 12 12 13 13 14 15 15 15 15 15 15 15 16 15 15 15 15 15 14 13 13
7 7 6 5 5 5 6 6 6 7 8 8 8 8 9 9 9 9 9 9 10 10 11 12 13 13 14 14 15 15 15 15 15 15 15 15 15 15 15 15 14 13 12 12